Miscellaneous Local Product
Issued by NWS Hastings, NE

Home | Current Version | Previous Version | Graphics & Text | Print | Product List | Glossary On
Versions: 1 2 3 4 5 6 7 8 9 10 11 12 13 14 15 16 17 18 19 20 21 22 23 24 25 26 27 28 29 30 31 32 33 34 35 36 37 38 39 40 41 42 43 44 45 46 47 48 49 50
878
AXUS43 KGID 190902
MISGRI

GID CWA HOURLY WEATHER ROUNDUP
NATIONAL WEATHER SERVICE HASTINGS NE
300 AM CST THU JAN 19 2017

NOTE: "FAIR" INDICATES FEW OR NO CLOUDS BELOW 12,000 FEET WITH NO
SIGNIFICANT WEATHER AND/OR OBSTRUCTIONS TO VISIBILITY.

...SOUTH CENTRAL NEBRASKA...

CITY           SKY/WX    TMP DP  RH WIND       PRES   REMARKS
GRAND ISLAND   CLEAR     36  35  96 S12       29.74F WCI  28
HASTINGS       CLOUDY    36  34  92 S8        29.76S WCI  30
KEARNEY        CLOUDY    36  34  93 S10       29.73S WCI  28
ORD            CLEAR     36  34  92 S9        29.69F WCI  29
YORK           PTCLDY    36  36 100 S9        29.78S WCI  29
AURORA         CLEAR     34  33  96 S8        29.76F WCI  27
LEXINGTON      FOG       38  37  96 S8        29.70S VSB 1/2 WCI  32
HOLDREGE       FOG       38  37  96 S8        29.72S VSB 1/4 WCI  32
HEBRON         PTCLDY    37  34  90 S10       29.80S WCI  29

...NEBRASKA PANHANDLE...

CITY           SKY/WX    TMP DP  RH WIND       PRES   REMARKS
CHADRON        CLOUDY    26  17  68 SW10      29.64S WCI  16
ALLIANCE       CLOUDY    19  15  84 W7        29.63R WCI  10
SCOTTSBLUFF    CLOUDY    27  20  75 NW7       29.64S WCI  19
SIDNEY         CLOUDY    27  20  75 W10       29.66R WCI  17

...WESTERN AND NORTH CENTRAL NEBRASKA...

CITY           SKY/WX    TMP DP  RH WIND       PRES   REMARKS
VALENTINE      CLOUDY    30  24  78 SW9       29.64S WCI  22
AINSWORTH      CLEAR     32  32 100 S8        29.66R WCI  25
ONEILL         CLEAR     37  36  98 S8        29.69S WCI  30
BROKEN BOW     FOG       36  36 100 S12       29.68S VSB 1/4 WCI  28
IMPERIAL       CLOUDY    27  24  89 NW6       29.66F WCI  20
NORTH PLATTE   FOG       33  32  96 CALM      29.69S VSB 1/4
MCCOOK         FOG       33  33 100 S6        29.69S VSB 1/4 WCI  28

...EASTERN NEBRASKA...

CITY           SKY/WX    TMP DP  RH WIND       PRES   REMARKS
NORFOLK        CLEAR     33  30  88 SE6       29.76S WCI  28
SO SIOUX CITY  CLEAR     34  32  92 SE9       29.81S WCI  27
TEKAMAH        CLEAR     34  32  92 SE9       29.83S WCI  27
COLUMBUS       CLEAR     36  32  87 SE6       29.79S WCI  31
ALBION         CLEAR     34  32  92 SE3       29.74F
OMAHA EPPLEY   PTCLDY    37  32  82 S10       29.85F WCI  30
OFFUTT AFB     PTCLDY    35  35 100 SE7       29.84F WCI  29
MILLARD        PTCLDY    36  34  91 SE7       29.84F WCI  30
LINCOLN        PTCLDY    36  33  89 S8        29.83S WCI  30
NEBRASKA CITY  CLOUDY    36  36 100 S9        29.85F FOG     WCI  29
BEATRICE       PTCLDY    37  35  90 S6        29.82F WCI  33
FALLS CITY     PTCLDY    37  35  92 E5        29.87F WCI  33

...NORTHERN KANSAS...

CITY           SKY/WX    TMP DP  RH WIND       PRES   REMARKS
GOODLAND       CLOUDY    28  25  88 W6        29.65S WCI  22
HILL CITY      CLOUDY    43  43 100 S5        29.72S FOG
NORTON         FOG       39  36  87 SE6       29.70S VSB 3/4 WCI  35
PHILLIPSBURG   CLOUDY    43  43 100 SE5       29.74S FOG
SMITH CENTER   FOG       37  37 100 SE7       29.77S VSB 1/4 WCI  32
RUSSELL        CLOUDY    45  43  93 S17       29.73F
CONCORDIA      CLOUDY    41  39  93 SE12      29.79F
SALINA           N/A    N/A N/A N/A MISG        N/A
TOPEKA         CLOUDY    41  38  89 E5        29.88F



USA.gov is the U.S. government's official web portal to all federal, state and local government web resources and services.